"Timestamp","TZ","WindDir_Mean (deg)","WindSpd_Mean (km/h)","WindSpd_Min (km/h)","WindSpd_Max (km/h)","Temp_Mean (deg)","RH_Mean (%)","MSLP_Mean (hPa)","Rain_Acc (mm)","Rain_Intensity (mm/h)","Hail_Acc (hits/cm2)","Hail_Intensity (hits/cm2hr)","Solar_Mean (W/m2)"
2023/10/28 00:00:00.015,n,156,2.88,2.52,2.88,16.6,63.3,1024.12,0,0,0,0,0.027008
2023/10/28 00:01:00.001,n,214,4.68,3.6,5.4,16.6,63.4,1024.12,0,0,0,0,0.030479
2023/10/28 00:02:00.001,n,185,2.16,0.72,3.6,16.6,63.5,1024.22,0,0,0,0,0.029602
2023/10/28 00:03:00.002,n,161,5.04,2.88,7.2,16.6,63.5,1024.12,0,0,0,0,0.032234
2023/10/28 00:04:00.002,n,126,3.96,3.6,4.32,16.6,63.3,1024.12,0,0,0,0,0.031357
2023/10/28 00:05:00.004,n,136,1.8,1.08,3.6,16.6,63.4,1024.12,0,0,0,0,0.033112
2023/10/28 00:06:00.005,n,254,2.16,1.44,2.88,16.6,63.3,1024.12,0,0,0,0,0.040092
2023/10/28 00:07:00.008,n,144,14.76,10.8,18,16.6,63,1024.02,0,0,0,0,0.031357
2023/10/28 00:08:00.011,n,204,10.08,9,14.4,16.6,63,1024.12,0,0,0,0,0.032234
2023/10/28 00:09:00.008,n,147,5.76,0.72,11.88,16.6,63.1,1024.12,0,0,0,0,0.029602
2023/10/28 00:10:00.001,n,214,3.6,3.24,4.32,16.6,63.1,1024.12,0,0,0,0,0.028725
2023/10/28 00:11:00.002,n,201,12.24,11.16,13.68,16.6,62.9,1024.12,0,0,0,0,0.030479
2023/10/28 00:12:00.002,n,173,10.8,5.04,16.919998,16.5,63,1024.12,0,0,0,0,0.031357
2023/10/28 00:13:00.002,n,155,10.8,8.64,14.76,16.5,62.8,1024.12,0,0,0,0,0.030479
2023/10/28 00:14:00.002,n,213,6.12,5.04,6.84,16.5,63,1024.12,0,0,0,0,0.029602
2023/10/28 00:15:00.002,n,276,1.8,1.08,2.52,16.6,63.3,1024.12,0,0,0,0,0.027885
2023/10/28 00:16:00.002,n,139,1.08,0.36,3.24,16.6,63.4,1024.12,0,0,0,0,0.033112
2023/10/28 00:17:00.008,n,118,1.08,0.36,2.16,16.6,63.3,1024.12,0,0,0,0,0.031357
2023/10/28 00:18:00.009,n,152,2.52,1.8,3.6,16.6,63.4,1024.12,0,0,0,0,0.029602
2023/10/28 00:19:00.001,n,196,4.68,3.24,6.48,16.6,63.2,1024.12,0,0,0,0,0.031357
2023/10/28 00:20:00.001,n,205,0.72,0.36,1.44,16.6,63.4,1024.12,0,0,0,0,0.030479
2023/10/28 00:21:00.001,n,330,6.48,3.6,9.72,16.6,63.3,1024.02,0,0,0,0,0.028725
2023/10/28 00:22:00.001,n,212,3.24,2.52,3.96,16.6,63.4,1024.12,0,0,0,0,0.034828
2023/10/28 00:23:00.001,n,205,2.16,1.8,2.52,16.6,63.4,1024.02,0,0,0,0,0.027885
2023/10/28 00:24:00.007,n,266,5.4,4.32,6.48,16.6,63.5,1024.12,0,0,0,0,0.031357
2023/10/28 00:25:00.011,n,163,5.4,3.6,6.48,16.6,63.3,1024.02,0,0,0,0,0.030479
2023/10/28 00:26:00.012,n,248,2.16,0.72,2.88,16.6,63.7,1024.12,0,0,0,0,0.031357
2023/10/28 00:27:00.014,n,171,4.32,3.96,5.4,16.6,63.8,1024.02,0,0,0,0,0.030479
2023/10/28 00:28:00.001,n,200,1.44,0.72,3.24,16.6,63.4,1024.02,0,0,0,0,0.029602
2023/10/28 00:29:00.002,n,45,4.32,2.52,5.76,16.6,64.199996,1024.02,0,0,0,0,0.032234
2023/10/28 00:30:00.002,n,177,1.8,1.44,2.52,16.6,64,1024.02,0,0,0,0,0.031357
2023/10/28 00:31:00.007,n,168,8.28,5.04,13.68,16.6,63.4,1024.02,0,0,0,0,0.033951
2023/10/28 00:32:00.008,n,200,3.24,2.52,8.64,16.6,63.6,1024.02,0,0,0,0,0.034828
2023/10/28 00:33:00.010,n,285,3.24,2.52,3.96,16.6,63.7,1024.02,0,0,0,0,0.033112
2023/10/28 00:34:00.012,n,98,1.08,0.36,1.44,16.5,63.5,1024.02,0,0,0,0,0.029602
2023/10/28 00:35:00.014,n,278,3.6,3.24,3.96,16.5,63.6,1024.02,0,0,0,0,0.030479
2023/10/28 00:36:00.016,n,187,5.4,3.6,8.28,16.5,63.4,1023.92,0,0,0,0,0.031357
2023/10/28 00:37:00.001,n,136,2.16,1.08,5.4,16.5,63.5,1023.92,0,0,0,0,0.026131
2023/10/28 00:38:00.002,n,160,1.08,0,2.88,16.5,63.6,1023.92,0,0,0,0,0.032234
2023/10/28 00:39:00.001,n,154,3.6,1.8,5.76,16.5,63.6,1023.92,0,0,0,0,0.030479
2023/10/28 00:40:00.001,n,192,3.6,1.44,4.68,16.5,63.8,1023.92,0,0,0,0,0.032234
2023/10/28 00:41:00.002,n,173,5.76,2.16,7.92,16.5,63.3,1023.82,0,0,0,0,0.030479
2023/10/28 00:42:00.001,n,137,1.44,0.72,2.52,16.5,63.7,1023.82,0,0,0,0,0.029602
2023/10/28 00:43:00.001,n,146,5.04,4.68,5.76,16.5,63.6,1023.82,0,0,0,0,0.035706
2023/10/28 00:44:00.004,n,199,4.32,1.44,5.76,16.5,63.7,1023.82,0,0,0,0,0.029602
2023/10/28 00:45:00.007,n,174,15.12,11.52,18.72,16.4,63.5,1023.82,0,0,0,0,0.029602
2023/10/28 00:46:00.004,n,179,6.48,5.04,7.92,16.4,63.6,1023.72,0,0,0,0,0.031357
2023/10/28 00:47:00.001,n,292,4.68,1.08,6.48,16.4,63.7,1023.72,0,0,0,0,0.033112
2023/10/28 00:48:00.001,n,256,1.08,0.72,1.8,16.4,63.8,1023.72,0,0,0,0,0.032234
2023/10/28 00:49:00.002,n,76,1.44,0.72,3.24,16.4,64,1023.72,0,0,0,0,0.033112
2023/10/28 00:50:00.001,n,199,6.84,5.4,8.28,16.4,63.7,1023.62,0,0,0,0,0.033112
2023/10/28 00:51:00.003,n,160,7.2,5.76,8.28,16.4,63.9,1023.62,0,0,0,0,0.03746
2023/10/28 00:52:00.005,n,193,4.68,3.24,5.4,16.4,64,1023.62,0,0,0,0,0.043526
2023/10/28 00:53:00.009,n,156,8.64,2.16,15.84,16.3,64,1023.62,0,0,0,0,0.046158
2023/10/28 00:54:00.004,n,16,3.6,1.08,7.2,16.3,63.9,1023.62,0,0,0,0,0.046158
2023/10/28 00:55:00.004,n,181,5.04,3.24,5.76,16.3,64,1023.62,0,0,0,0,0.028763
2023/10/28 00:56:00.012,n,167,12.6,10.440002,16.56,16.3,63.9,1023.62,0,0,0,0,0.038338
2023/10/28 00:57:00.008,n,183,3.96,2.52,5.04,16.3,64.1,1023.62,0,0,0,0,0.036583
2023/10/28 00:58:00.001,n,179,1.44,0.72,1.8,16.3,64.199996,1023.62,0,0,0,0,0.038338
2023/10/28 00:59:00.011,n,217,1.44,0.72,2.52,16.3,64.4,1023.52,0,0,0,0,0.040932
2023/10/28 01:00:00.004,n,256,1.08,0.36,2.16,16.3,64.5,1023.52,0,0,0,0,0.04528
2023/10/28 01:01:00.010,n,177,10.440002,8.28,14.76,16.200002,64.4,1023.52,0,0,0,0,0.043564
2023/10/28 01:02:00.011,n,288,4.32,2.88,5.4,16.200002,64.5,1023.52,0,0,0,0,0.046196
2023/10/28 01:03:00.010,n,185,8.28,7.2,12.6,16.200002,64.5,1023.62,0,0,0,0,0.047035
2023/10/28 01:04:00.002,n,131,5.4,3.6,6.48,16.200002,64.5,1023.62,0,0,0,0,0.047035
2023/10/28 01:05:00.003,n,217,2.52,1.8,2.88,16.200002,64.699996,1023.52,0,0,0,0,0.04879
2023/10/28 01:06:00.006,n,120,0.36,0.36,0.72,16.200002,65,1023.52,0,0,0,0,0.050545
2023/10/28 01:07:00.003,n,152,6.84,4.32,8.28,16.200002,64.800004,1023.52,0,0,0,0,0.050545
2023/10/28 01:08:00.001,n,188,5.04,3.96,6.48,16.200002,64.800004,1023.52,0,0,0,0,0.049629
2023/10/28 01:09:00.004,n,181,4.32,3.96,4.68,16.1,65,1023.52,0,0,0,0,0.050545
2023/10/28 01:10:00.013,n,188,6.12,5.4,6.48,16.1,64.9,1023.52,0,0,0,0,0.026131
2023/10/28 01:11:00.016,n,171,3.6,2.52,5.4,16.1,65,1023.52,0,0,0,0,0.032234
2023/10/28 01:12:00.016,n,196,5.04,2.88,5.4,16.1,65,1023.52,0,0,0,0,0.029602
2023/10/28 01:13:00.001,n,182,5.4,4.68,7.56,16.1,65.1,1023.52,0,0,0,0,0.032234
2023/10/28 01:14:00.006,n,205,5.04,3.24,6.12,16.1,65.1,1023.52,0,0,0,0,0.034866
2023/10/28 01:15:00.001,n,219,9,7.2,10.440002,16.1,65.199996,1023.52,0,0,0,0,0.03746
2023/10/28 01:16:00.001,n,202,0.72,0,1.44,16.1,65.4,1023.52,0,0,0,0,0.034866
2023/10/28 01:17:00.001,n,225,1.8,1.44,2.16,16.1,65.199996,1023.52,0,0,0,0,0.034866
2023/10/28 01:18:00.001,n,76,1.8,0.72,2.88,16.1,65.5,1023.52,0,0,0,0,0.0383
2023/10/28 01:19:00.009,n,186,4.32,1.44,6.12,16.1,65.5,1023.42,0,0,0,0,0.034866
2023/10/28 01:20:00.002,n,196,6.84,5.76,7.56,16,65.300004,1023.42,0,0,0,0,0.03746
2023/10/28 01:21:00.011,n,173,6.48,5.76,6.84,16,65.300004,1023.42,0,0,0,0,0.036583
2023/10/28 01:22:00.002,n,181,8.64,7.92,9.36,16,65.4,1023.42,0,0,0,0,0.0383
2023/10/28 01:23:00.001,n,156,6.12,5.4,7.2,16,65.5,1023.42,0,0,0,0,0.036583
2023/10/28 01:24:00.002,n,205,12.24,10.8,15.84,16,65.300004,1023.42,0,0,0,0,0.0383
2023/10/28 01:25:00.014,n,242,10.08,7.2,12.24,16,65.300004,1023.42,0,0,0,0,0.034866
2023/10/28 01:26:00.004,n,222,1.44,0.36,2.88,16,65.4,1023.42,0,0,0,0,0.039215
2023/10/28 01:27:00.005,n,182,6.12,3.96,10.8,16,65.5,1023.42,0,0,0,0,0.036583
2023/10/28 01:28:00.012,n,167,11.52,4.68,20.519998,16,65.5,1023.42,0,0,0,0,0.034866
2023/10/28 01:29:00.012,n,186,3.96,2.88,7.2,16,65.5,1023.42,0,0,0,0,0.0383
2023/10/28 01:30:00.017,n,156,2.88,1.08,5.04,16,65.699996,1023.42,0,0,0,0,0.041809
2023/10/28 01:31:00.001,n,165,3.6,2.52,4.32,16,65.800004,1023.42,0,0,0,0,0.040054
2023/10/28 01:32:00.001,n,201,6.12,4.32,7.2,16,65.800004,1023.42,0,0,0,0,0.0383
2023/10/28 01:33:00.001,n,218,2.52,1.44,3.6,16,65.9,1023.52,0,0,0,0,0.040054
2023/10/28 01:34:00.001,n,154,1.8,0.36,3.6,15.9,66.199996,1023.52,0,0,0,0,0.0383
2023/10/28 01:35:00.011,n,181,2.52,1.44,3.96,15.9,66,1023.52,0,0,0,0,0.036583
2023/10/28 01:36:00.002,n,274,3.96,3.6,4.32,15.9,66.300004,1023.52,0,0,0,0,0.0383
2023/10/28 01:37:00.031,n,306,0.72,0.36,1.08,15.9,66.4,1023.52,0,0,0,0,0.040054
2023/10/28 01:38:00.014,n,166,9,6.48,9.72,15.9,66.300004,1023.52,0,0,0,0,0.039215
2023/10/28 01:39:00.004,n,250,4.68,4.32,5.4,15.9,66.4,1023.52,0,0,0,0,0.036583
2023/10/28 01:40:00.002,n,229,1.44,0.72,1.8,15.9,67.3,1023.52,0,0,0,0,0.0383
2023/10/28 01:41:00.007,n,147,5.04,4.32,7.2,15.9,66.4,1023.52,0,0,0,0,0.03746
2023/10/28 01:42:00.001,n,253,4.32,2.52,7.2,15.9,66.4,1023.52,0,0,0,0,0.039215
2023/10/28 01:43:00.002,n,255,9.36,7.92,11.52,15.8,66.5,1023.42,0,0,0,0,0.040054
2023/10/28 01:44:00.011,n,196,7.92,3.96,10.8,15.8,66.699996,1023.52,0,0,0,0,0.039215
2023/10/28 01:45:00.003,n,209,6.48,5.76,8.28,15.8,66.5,1023.52,0,0,0,0,0.039215
2023/10/28 01:46:00.014,n,232,4.68,3.96,5.4,15.8,66.6,1023.52,0,0,0,0,0.040932
2023/10/28 01:47:00.004,n,235,4.68,2.16,7.56,15.8,66.6,1023.52,0,0,0,0,0.039215
2023/10/28 01:48:00.010,n,133,5.4,5.04,6.12,15.8,66.800004,1023.52,0,0,0,0,0.0383
2023/10/28 01:49:00.003,n,295,3.6,1.44,5.76,15.8,66.9,1023.62,0,0,0,0,0.039215
2023/10/28 01:50:00.002,n,291,4.68,3.24,6.12,15.8,67.1,1023.62,0,0,0,0,0.039215
2023/10/28 01:51:00.002,n,184,3.6,2.16,3.96,15.8,67,1023.62,0,0,0,0,0.039215
2023/10/28 01:52:00.005,n,306,2.52,2.16,2.88,15.8,67,1023.62,0,0,0,0,0.03746
2023/10/28 01:53:00.005,n,253,8.28,7.56,9.36,15.8,67,1023.62,0,0,0,0,0.035706
2023/10/28 01:54:00.012,n,126,5.04,4.32,5.4,15.7,67.1,1023.62,0,0,0,0,0.040054
2023/10/28 01:55:00.016,n,41,4.32,3.96,5.04,15.7,67.5,1023.62,0,0,0,0,0.040932
2023/10/28 01:56:00.006,n,305,1.08,0,1.8,15.8,67.1,1023.62,0,0,0,0,0.039215
2023/10/28 01:57:00.006,n,263,3.24,1.8,4.32,15.8,67.3,1023.62,0,0,0,0,0.03746
2023/10/28 01:58:00.002,n,224,0.72,0.36,1.08,15.7,67.2,1023.52,0,0,0,0,0.0383
2023/10/28 01:59:00.002,n,157,3.96,3.6,4.68,15.7,67.2,1023.62,0,0,0,0,0.033951
2023/10/28 02:00:00.002,n,172,2.52,1.08,3.24,15.7,67.1,1023.52,0,0,0,0,0.03746
2023/10/28 02:01:00.009,n,179,1.8,0.72,2.16,15.7,67.1,1023.52,0,0,0,0,0.0383
2023/10/28 02:02:00.005,n,88,1.8,1.44,1.8,15.7,67.2,1023.52,0,0,0,0,0.0383
2023/10/28 02:03:00.002,n,155,5.4,5.04,5.76,15.7,67.2,1023.52,0,0,0,0,0.03746
2023/10/28 02:04:00.009,n,121,2.16,1.08,3.6,15.7,67.2,1023.42,0,0,0,0,0.03746
2023/10/28 02:05:00.010,n,268,1.08,0.36,1.08,15.7,67.2,1023.42,0,0,0,0,0.040932
2023/10/28 02:06:00.011,n,218,3.6,3.24,4.68,15.7,67.4,1023.42,0,0,0,0,0.033951
2023/10/28 02:07:00.001,n,129,2.88,1.8,3.24,15.7,67.7,1023.42,0,0,0,0,0.036583
2023/10/28 02:08:00.002,n,123,2.16,0.72,3.96,15.7,67.5,1023.32,0,0,0,0,0.033951
2023/10/28 02:09:00.008,n,186,3.24,1.44,5.04,15.6,67.5,1023.32,0,0,0,0,0.033951
2023/10/28 02:10:00.003,n,159,13.68,7.92,18,15.6,67.3,1023.32,0,0,0,0,0.03746
2023/10/28 02:11:00.004,n,172,9.36,9,10.440002,15.6,67.2,1023.32,0,0,0,0,0.034866
2023/10/28 02:12:00.007,n,179,12.96,10.8,15.48,15.6,67.1,1023.22,0,0,0,0,0.035706
2023/10/28 02:13:00.003,n,233,5.4,4.68,6.12,15.6,67,1023.22,0,0,0,0,0.033073
2023/10/28 02:14:00.008,n,157,1.44,1.44,1.8,15.6,67.1,1023.32,0,0,0,0,0.035706
2023/10/28 02:15:00.003,n,134,2.52,0.36,3.96,15.6,67.1,1023.22,0,0,0,0,0.035706
2023/10/28 02:16:00.010,n,157,11.52,9.72,17.64,15.6,67,1023.22,0,0,0,0,0.034866
2023/10/28 02:17:00.002,n,226,6.12,5.04,9,15.6,67,1023.22,0,0,0,0,0.03746
2023/10/28 02:18:00.002,n,192,7.2,4.68,9.72,15.6,67.1,1023.22,0,0,0,0,0.033073
2023/10/28 02:19:00.002,n,187,10.08,9,15.84,15.6,67.1,1023.22,0,0,0,0,0.033951
2023/10/28 02:20:00.008,n,265,2.52,1.8,2.88,15.6,67,1023.22,0,0,0,0,0.033073
2023/10/28 02:21:00.013,n,183,6.84,5.04,12.6,15.6,67.1,1023.22,0,0,0,0,0.035706
2023/10/28 02:22:00.007,n,255,7.2,6.48,7.56,15.6,67.1,1023.22,0,0,0,0,0.033073
2023/10/28 02:23:00.019,n,112,4.68,1.8,7.2,15.6,67.1,1023.22,0,0,0,0,0.033073
2023/10/28 02:24:00.012,n,27,5.4,4.68,6.12,15.6,67.3,1023.22,0,0,0,0,0.032234
2023/10/28 02:25:00.005,n,162,4.68,3.24,6.12,15.6,67.4,1023.22,0,0,0,0,0.031357
2023/10/28 02:26:00.007,n,147,5.04,2.88,6.12,15.6,67.4,1023.22,0,0,0,0,0.031357
2023/10/28 02:27:00.002,n,185,10.08,9.36,11.16,15.6,67.2,1023.22,0,0,0,0,0.032234
2023/10/28 02:28:00.003,n,173,11.52,9.36,15.84,15.6,67.3,1023.22,0,0,0,0,0.032234
2023/10/28 02:29:00.009,n,110,2.16,0.72,3.96,15.6,67.4,1023.22,0,0,0,0,0.033073
2023/10/28 02:30:00.001,n,197,6.12,5.4,6.48,15.6,67.4,1023.22,0,0,0,0,0.033951
2023/10/28 02:31:00.001,n,191,8.64,7.56,11.88,15.6,67.3,1023.22,0,0,0,0,0.030479
2023/10/28 02:32:00.007,n,159,14.4,12.24,18.359998,15.6,67.4,1023.22,0,0,0,0,0.032234
2023/10/28 02:33:00.005,n,188,5.4,3.6,8.28,15.6,67.4,1023.22,0,0,0,0,0.031357
2023/10/28 02:34:00.001,n,182,2.16,1.44,2.52,15.6,67.4,1023.22,0,0,0,0,0.031357
2023/10/28 02:35:00.001,n,75,1.8,0.72,4.68,15.5,67.5,1023.22,0,0,0,0,0.029602
2023/10/28 02:36:00.002,n,175,10.8,4.68,15.12,15.5,67.5,1023.22,0,0,0,0,0.030479
2023/10/28 02:37:00.007,n,186,3.96,2.52,5.4,15.5,67.6,1023.22,0,0,0,0,0.028725
2023/10/28 02:38:00.005,n,112,1.8,1.44,2.16,15.5,67.6,1023.22,0,0,0,0,0.033073
2023/10/28 02:39:00.001,n,279,4.68,3.96,5.04,15.5,67.9,1023.22,0,0,0,0,0.029602
2023/10/28 02:40:00.018,n,180,7.2,5.76,11.52,15.5,67.9,1023.22,0,0,0,0,0.029602
2023/10/28 02:41:00.010,n,206,2.16,0.72,3.96,15.5,67.9,1023.22,0,0,0,0,0.030479
2023/10/28 02:42:00.016,n,244,10.440002,8.28,12.96,15.5,67.8,1023.22,0,0,0,0,0.032234
2023/10/28 02:43:00.001,n,272,4.68,3.24,5.4,15.5,68.1,1023.22,0,0,0,0,0.030479
2023/10/28 02:44:00.001,n,207,4.32,3.96,5.4,15.5,68.1,1023.32,0,0,0,0,0.029602
2023/10/28 02:45:00.008,n,278,3.6,2.52,4.32,15.4,68.2,1023.22,0,0,0,0,0.026131
2023/10/28 02:46:00.010,n,88,2.16,0.36,3.6,15.4,68.4,1023.32,0,0,0,0,0.024376
2023/10/28 02:47:00.004,n,262,4.32,3.6,4.68,15.4,68.4,1023.32,0,0,0,0,0.025291
2023/10/28 02:48:00.001,n,190,8.28,5.04,11.16,15.4,68.4,1023.32,0,0,0,0,0.023499
2023/10/28 02:49:00.001,n,291,2.16,1.44,3.24,15.4,68.4,1023.32,0,0,0,0,0.027885
2023/10/28 02:50:00.014,n,258,2.52,1.8,3.24,15.4,68.4,1023.32,0,0,0,0,0.028725
2023/10/28 02:51:00.010,n,166,1.8,1.08,2.52,15.4,68.4,1023.32,0,0,0,0,0.027008
2023/10/28 02:52:00.001,n,260,5.4,4.68,6.48,15.4,68.5,1023.32,0,0,0,0,0.028725
2023/10/28 02:53:00.001,n,249,5.4,3.6,6.48,15.4,68.4,1023.32,0,0,0,0,0.027885
2023/10/28 02:54:00.003,n,197,2.88,2.16,3.96,15.4,68.5,1023.32,0,0,0,0,0.027885
2023/10/28 02:55:00.001,n,265,9.36,7.2,12.6,15.4,68.4,1023.32,0,0,0,0,0.022659
2023/10/28 02:56:00.002,n,260,5.04,2.16,7.56,15.3,68.4,1023.32,0,0,0,0,0.023499
2023/10/28 02:57:00.001,n,279,6.48,5.4,7.2,15.3,68.4,1023.32,0,0,0,0,0.027008
2023/10/28 02:58:00.001,n,159,2.16,2.16,2.52,15.3,68.5,1023.32,0,0,0,0,0.024376
2023/10/28 02:59:00.002,n,176,8.28,7.56,10.08,15.3,68.6,1023.32,0,0,0,0,0.024376
2023/10/28 03:00:00.019,n,252,3.96,2.88,4.32,15.3,68.7,1023.42,0,0,0,0,0.021782
2023/10/28 03:01:00.002,n,244,5.04,2.88,6.84,15.4,68.8,1023.42,0,0,0,0,0.027885
2023/10/28 03:02:00.001,n,306,2.88,2.16,3.96,15.4,68.7,1023.42,0,0,0,0,0.021782
2023/10/28 03:03:00.014,n,339,2.16,0.36,5.04,15.4,68.6,1023.42,0,0,0,0,0.027008
2023/10/28 03:04:00.003,n,215,1.08,0.36,1.08,15.4,68.7,1023.42,0,0,0,0,0.023499
2023/10/28 03:05:00.002,n,192,6.48,5.76,7.2,15.4,68.7,1023.32,0,0,0,0,0.022659
2023/10/28 03:06:00.006,n,261,9.36,7.56,12.96,15.4,68.6,1023.32,0,0,0,0,0.023499
2023/10/28 03:07:00.011,n,52,1.8,1.44,2.88,15.4,68.8,1023.42,0,0,0,0,0.021782
2023/10/28 03:08:00.004,n,251,7.2,6.48,7.56,15.4,68.8,1023.42,0,0,0,0,0.023499
2023/10/28 03:09:00.021,n,218,3.96,3.24,4.68,15.4,68.9,1023.42,0,0,0,0,0.024376
2023/10/28 03:10:00.002,n,236,3.24,2.16,5.04,15.4,68.9,1023.42,0,0,0,0,0.021782
2023/10/28 03:11:00.005,n,195,2.52,2.16,2.88,15.4,68.7,1023.42,0,0,0,0,0.024376
2023/10/28 03:12:00.001,n,170,3.96,3.6,4.68,15.4,68.6,1023.42,0,0,0,0,0.01915
2023/10/28 03:13:00.004,n,227,2.16,0.72,3.24,15.4,68.4,1023.42,0,0,0,0,0.021782
2023/10/28 03:14:00.008,n,288,3.6,1.8,5.4,15.3,68.4,1023.42,0,0,0,0,0.024376
2023/10/28 03:15:00.008,n,272,5.4,4.32,6.12,15.3,68.5,1023.42,0,0,0,0,0.020943
2023/10/28 03:16:00.007,n,198,2.52,1.08,3.24,15.3,68.7,1023.52,0,0,0,0,0.023499
2023/10/28 03:17:00.005,n,196,4.32,3.6,5.04,15.3,68.9,1023.52,0,0,0,0,0.021782
2023/10/28 03:18:00.006,n,215,7.56,5.76,8.64,15.3,68.6,1023.52,0,0,0,0,0.018311
2023/10/28 03:19:00.001,n,215,3.6,2.88,3.96,15.3,68.7,1023.52,0,0,0,0,0.021782
2023/10/28 03:20:00.002,n,275,5.4,3.6,7.2,15.3,68.7,1023.52,0,0,0,0,0.020027
2023/10/28 03:21:00.001,n,159,10.8,7.92,11.88,15.3,68.6,1023.52,0,0,0,0,0.020027
2023/10/28 03:22:00.007,n,157,7.56,6.12,8.28,15.3,68.4,1023.52,0,0,0,0,0.020943
2023/10/28 03:23:00.005,n,199,3.6,2.88,4.32,15.4,68.3,1023.52,0,0,0,0,0.021782
2023/10/28 03:24:00.001,n,158,5.4,2.16,10.08,15.4,68.5,1023.52,0,0,0,0,0.021782
2023/10/28 03:25:00.005,n,174,5.4,3.6,6.48,15.4,68.5,1023.52,0,0,0,0,0.020943
2023/10/28 03:26:00.016,n,274,5.04,4.32,5.76,15.4,68.3,1023.52,0,0,0,0,0.020027
2023/10/28 03:27:00.010,n,96,2.88,1.08,5.04,15.4,68.5,1023.52,0,0,0,0,0.021782
2023/10/28 03:28:00.001,n,266,7.92,6.84,10.08,15.4,68.4,1023.52,0,0,0,0,0.01915
2023/10/28 03:29:00.001,n,175,6.12,4.68,9,15.4,68.4,1023.52,0,0,0,0,0.020943
2023/10/28 03:30:00.002,n,241,2.16,1.44,2.16,15.4,68.4,1023.52,0,0,0,0,0.020943
2023/10/28 03:31:00.006,n,1,2.52,0.36,3.96,15.4,68.6,1023.52,0,0,0,0,0.015678
2023/10/28 03:32:00.001,n,286,7.92,6.84,8.64,15.4,68.6,1023.52,0,0,0,0,0.021782
2023/10/28 03:33:00.011,n,188,9.36,8.28,9.72,15.4,68.6,1023.62,0,0,0,0,0.01915
2023/10/28 03:34:00.008,n,203,9,7.92,10.440002,15.4,68.4,1023.62,0,0,0,0,0.014801
2023/10/28 03:35:00.005,n,179,2.52,1.8,2.88,15.4,68.6,1023.62,0,0,0,0,0.029602
2023/10/28 03:36:00.020,n,356,1.08,0.36,1.8,15.4,69,1023.62,0,0,0,0,0.031319
2023/10/28 03:37:00.001,n,256,1.44,1.08,1.8,15.4,68.8,1023.72,0,0,0,0,0.031319
2023/10/28 03:38:00.002,n,269,3.24,2.16,4.32,15.4,68.9,1023.72,0,0,0,0,0.034828
2023/10/28 03:39:00.004,n,166,7.92,5.4,10.08,15.3,68.9,1023.72,0,0,0,0,0.028725
2023/10/28 03:40:00.015,n,216,1.08,0.36,1.8,15.3,69,1023.72,0,0,0,0,0.031319
2023/10/28 03:41:00.010,n,192,0.72,0.36,1.08,15.3,69,1023.72,0,0,0,0,0.033073
2023/10/28 03:42:00.012,n,283,2.16,1.08,3.24,15.3,69.1,1023.72,0,0,0,0,0.033073
2023/10/28 03:43:00.002,n,157,4.68,3.24,5.76,15.3,68.9,1023.72,0,0,0,0,0.030479
2023/10/28 03:44:00.015,n,261,4.32,0.36,5.4,15.2,69,1023.72,0,0,0,0,0.028725
2023/10/28 03:45:00.012,n,245,2.88,2.52,2.88,15.2,69,1023.72,0,0,0,0,0.030479
2023/10/28 03:46:00.001,n,275,4.32,3.6,5.4,15.2,69.2,1023.72,0,0,0,0,0.031319
2023/10/28 03:47:00.004,n,175,1.44,0.72,2.16,15.2,69.4,1023.72,0,0,0,0,0.033951
2023/10/28 03:48:00.005,n,129,1.44,1.08,3.96,15.2,69.2,1023.72,0,0,0,0,0.031319
2023/10/28 03:49:00.001,n,204,4.68,3.24,5.04,15.2,69.1,1023.72,0,0,0,0,0.033073
2023/10/28 03:50:00.001,n,183,2.88,2.16,3.96,15.2,69.1,1023.72,0,0,0,0,0.028725
2023/10/28 03:51:00.013,n,256,3.96,3.24,4.68,15.2,68.9,1023.72,0,0,0,0,0.028725
2023/10/28 03:52:00.012,n,212,4.68,3.6,6.48,15.2,68.9,1023.72,0,0,0,0,0.031319
2023/10/28 03:53:00.011,n,170,2.88,1.08,3.6,15.2,68.9,1023.72,0,0,0,0,0.029602
2023/10/28 03:54:00.002,n,191,3.24,2.52,4.68,15.2,69,1023.72,0,0,0,0,0.031319
2023/10/28 03:55:00.002,n,167,5.04,3.96,6.12,15.2,69,1023.82,0,0,0,0,0.029602
2023/10/28 03:56:00.012,n,150,1.08,0.72,1.44,15.2,68.9,1023.82,0,0,0,0,0.028725
2023/10/28 03:57:00.001,n,232,1.08,0.36,1.8,15.2,69.1,1023.82,0,0,0,0,0.026131
2023/10/28 03:58:00.004,n,310,2.88,1.44,4.68,15.2,69.3,1023.82,0,0,0,0,0.031319
2023/10/28 03:59:00.001,n,152,0.36,0.36,1.44,15.2,69.5,1023.82,0,0,0,0,0.031319
2023/10/28 04:00:00.012,n,300,2.52,1.8,3.96,15.2,69.6,1023.82,0,0,0,0,0.028725
2023/10/28 04:01:00.022,n,191,2.52,1.8,5.4,15.2,69.5,1023.82,0,0,0,0,0.029602
2023/10/28 04:02:00.013,n,232,6.12,6.12,6.48,15.2,69.6,1023.82,0,0,0,0,0.029602
2023/10/28 04:03:00.008,n,228,4.32,2.52,5.76,15.2,69.5,1023.92,0,0,0,0,0.030479
2023/10/28 04:04:00.001,n,221,1.8,1.08,3.96,15.1,69.4,1023.92,0,0,0,0,0.030479
2023/10/28 04:05:00.001,n,251,3.24,1.8,4.68,15.1,69.4,1023.92,0,0,0,0,0.028725
2023/10/28 04:06:00.001,n,203,5.04,3.96,5.76,15.1,69.4,1023.92,0,0,0,0,0.029602
2023/10/28 04:07:00.002,n,257,5.04,3.6,6.12,15.1,69.5,1023.92,0,0,0,0,0.030479
2023/10/28 04:08:00.001,n,200,5.76,4.32,7.92,15.1,69.5,1023.92,0,0,0,0,0.028725
2023/10/28 04:09:00.010,n,190,6.84,6.48,8.28,15.2,69.5,1023.92,0,0,0,0,0.028725
2023/10/28 04:10:00.014,n,263,2.88,2.52,3.24,15.2,69.2,1024.02,0,0,0,0,0.030479
2023/10/28 04:11:00.002,n,192,0.72,0.36,1.08,15.2,69.2,1024.02,0,0,0,0,0.030479
2023/10/28 04:12:00.010,n,188,6.12,5.04,6.48,15.2,69.1,1024.02,0,0,0,0,0.030479
2023/10/28 04:13:00.002,n,181,1.8,1.44,2.88,15.2,69.4,1024.02,0,0,0,0,0.031319
2023/10/28 04:14:00.001,n,207,0.72,0.36,0.72,15.3,69.1,1024.02,0,0,0,0,0.028725
2023/10/28 04:15:00.008,n,148,3.6,1.08,7.56,15.3,68.7,1024.12,0,0,0,0,0.029602
2023/10/28 04:16:00.005,n,230,3.6,2.52,3.96,15.3,68.5,1024.12,0,0,0,0,0.032196
2023/10/28 04:17:00.012,n,241,2.52,1.08,3.96,15.3,68.8,1024.02,0,0,0,0,0.028725
2023/10/28 04:18:00.018,n,139,3.24,0.72,5.4,15.3,68.7,1024.12,0,0,0,0,0.031319
2023/10/28 04:19:00.004,n,143,3.24,3.24,3.6,15.3,68.4,1024.12,0,0,0,0,0.031319
2023/10/28 04:20:00.009,n,133,3.24,0.36,5.4,15.3,68.4,1024.12,0,0,0,0,0.030479
2023/10/28 04:21:00.002,n,204,5.04,2.16,8.64,15.3,68,1024.12,0,0,0,0,0.031319
2023/10/28 04:22:00.001,n,226,2.16,1.08,3.6,15.4,68,1024.12,0,0,0,0,0.033073
2023/10/28 04:23:00.005,n,243,3.6,2.52,4.32,15.4,68,1024.12,0,0,0,0,0.032196
2023/10/28 04:24:00.001,n,158,6.84,5.04,9,15.4,68.1,1024.12,0,0,0,0,0.033951
2023/10/28 04:25:00.001,n,193,1.8,1.44,2.52,15.4,68.1,1024.22,0,0,0,0,0.032196
2023/10/28 04:26:00.007,n,156,3.24,2.88,3.24,15.4,68,1024.22,0,0,0,0,0.034828
2023/10/28 04:27:00.004,n,225,0.72,0.36,0.72,15.4,68,1024.22,0,0,0,0,0.036545
2023/10/28 04:28:00.007,n,241,5.4,4.32,7.2,15.4,67.8,1024.22,0,0,0,0,0.040894
2023/10/28 04:29:00.002,n,171,1.44,0.72,1.8,15.4,67.8,1024.22,0,0,0,0,0.0383
2023/10/28 04:30:00.006,n,211,8.64,7.92,10.08,15.4,67.8,1024.32,0,0,0,0,0.040054
2023/10/28 04:31:00.001,n,144,9,7.56,10.8,15.4,67.5,1024.22,0,0,0,0,0.0383
2023/10/28 04:32:00.004,n,219,4.32,3.96,5.4,15.4,67.4,1024.32,0,0,0,0,0.041771
2023/10/28 04:33:00.002,n,176,1.8,1.44,1.8,15.4,67.5,1024.22,0,0,0,0,0.041771
2023/10/28 04:34:00.007,n,208,3.6,2.52,4.68,15.4,67.6,1024.22,0,0,0,0,0.04612
2023/10/28 04:35:00.007,n,228,3.24,2.88,3.6,15.5,67.6,1024.32,0,0,0,0,0.050468
2023/10/28 04:36:00.001,n,181,3.6,0.72,5.4,15.5,67.6,1024.32,0,0,0,0,0.054855
2023/10/28 04:37:00.009,n,191,9.36,8.28,10.440002,15.5,67.1,1024.22,0,0,0,0,0.060959
2023/10/28 04:38:00.004,n,159,8.64,6.84,11.52,15.4,66.9,1024.22,0,0,0,0,0.07576
2023/10/28 04:39:00.018,n,189,11.88,10.440002,15.12,15.4,66.9,1024.22,0,0,0,0,0.097466
2023/10/28 04:40:00.002,n,205,6.12,4.68,6.84,15.4,67.1,1024.22,0,0,0,0,0.130577
2023/10/28 04:41:00.001,n,178,7.92,7.92,9,15.4,67.1,1024.22,0,0,0,0,0.180168
2023/10/28 04:42:00.002,n,207,0.72,0.36,1.44,15.5,67.2,1024.22,0,0,0,0,0.267143
2023/10/28 04:43:00.002,n,211,6.84,5.04,10.440002,15.5,67.1,1024.22,0,0,0,0,0.379257
2023/10/28 04:44:00.004,n,212,3.96,3.24,5.4,15.5,67.2,1024.22,0,0,0,0,0.49221
2023/10/28 04:45:00.012,n,186,6.48,5.76,7.2,15.5,67,1024.22,0,0,0,0,0.561676
2023/10/28 04:46:00.014,n,203,5.04,4.32,7.2,15.5,66.800004,1024.22,0,0,0,0,0.612869
2023/10/28 04:47:00.015,n,183,16.919998,14.4,21.96,15.5,66.5,1024.22,0,0,0,0,0.658875
2023/10/28 04:48:00.011,n,183,12.6,10.440002,19.44,15.5,66.6,1024.22,0,0,0,0,0.723076
2023/10/28 04:49:00.001,n,150,4.32,2.88,5.04,15.5,66.6,1024.22,0,0,0,0,0.840912
2023/10/28 04:50:00.002,n,168,7.92,5.76,12.6,15.5,66.699996,1024.22,0,0,0,0,1.025314
2023/10/28 04:51:00.001,n,164,7.2,4.68,9.72,15.5,66.6,1024.22,0,0,0,0,1.242523
2023/10/28 04:52:00.002,n,197,5.04,3.96,5.4,15.5,66.6,1024.22,0,0,0,0,1.527062
2023/10/28 04:53:00.002,n,180,11.16,10.08,16.2,15.5,66.4,1024.22,0,0,0,0,1.848373